Location: Blazny
(46.0612°N, 84.4033°W)
Time: 20:52:37
(UTC-04:00)

Envisat - Pass Details

Date: 14 September 2024
Orbit: 762 x 764 km, 98.3° (Epoch: 11 October)

Event Time Altitude Azimuth Distance (km) Brightness Sun altitude
Rises 05:44:40 0° 6° (N) 3,238 6.6 -16.0°
Reaches altitude 10° 05:47:08 10° 357° (N) 2,308 5.7 -15.6°
Maximum altitude 05:51:41 34° 294° (WNW) 1,234 3.7 -14.9°
Enters shadow 05:54:08 22° 246° (WSW) 1,618 4.0 -14.5°
